Location: Kellogg
(38.0159°N, 90.0546°W)
Time: 13:01:09
(UTC+00:00)

Transit 2A - Pass Details

Date: 18 September 2024
Orbit: 590 x 960 km, 66.7° (Epoch: 11 October)

Event Time Altitude Azimuth Distance (km) Brightness Sun altitude
Rises 01:06:30 0° 248° (WSW) 3,442 10.4 -13.0°
Reaches altitude 10° 01:09:29 10° 263° (W) 2,564 9.9 -13.6°
Maximum altitude 01:14:07 23° 314° (NW) 1,886 8.8 -14.5°
Drops below altitude 10° 01:18:57 10° 4° (N) 2,685 8.9 -15.4°
Sets 01:22:11 0° 19° (NNE) 3,648 9.5 -16.0°
